This is the latest recevied weather packets stored in our database for station/object WX5HOT. If no packets are shown the sender has not sent any weather packets the latest 10 day(s).
| Time | Temp. | Humidity | Pressure | Rain* | Wind** | Luminosity | Snow |
|---|---|---|---|---|---|---|---|
| 1777422012 | 21.67° C | 95% | 1062.1 hPa | 0 mm | - | 31 W/m² | - |
| 1777421707 | 21.67° C | 96% | 1061.5 hPa | 0 mm | - | 73 W/m² | - |
| 1777421402 | 21.11° C | 98% | 1061.2 hPa | 1.78 mm | - | 81 W/m² | - |
| 1777421099 | 21.11° C | 99% | 1060.7 hPa | 1.78 mm | - | 65 W/m² | - |
| 1777420795 | 21.11° C | 99% | 1060.3 hPa | 0 mm | - | 53 W/m² | - |
| 1777420491 | 21.11° C | 99% | 1060.1 hPa | 0 mm | - | 41 W/m² | - |
| 1777420189 | 21.11° C | 99% | 1059.8 hPa | 0 mm | - | 23 W/m² | - |
| 1777419884 | 21.11° C | 99% | 1059.8 hPa | 0 mm | - | 19 W/m² | - |
| 1777419582 | 21.11° C | 99% | 1059.7 hPa | 0 mm | - | 14 W/m² | - |
| 1777419280 | 21.11° C | 99% | 1061 hPa | 0 mm | - | 7 W/m² | - |
| 1777418978 | 21.11° C | 99% | 1061.7 hPa | 0 mm | - | 3 W/m² | - |
| 1777418672 | 21.67° C | 99% | 1061.8 hPa | 1.27 mm | - | 3 W/m² | - |
| 1777418369 | 21.67° C | 99% | 1062.2 hPa | 1.27 mm | - | 3 W/m² | - |
| 1777418065 | 21.67° C | 99% | 1062.2 hPa | 0 mm | - | 3 W/m² | - |
| 1777417762 | 21.67° C | 99% | 1062.3 hPa | 0 mm | - | 1 W/m² | - |
| 1777417457 | 21.67° C | 99% | 1062.1 hPa | 0 mm | - | 2 W/m² | - |
| 1777417154 | 21.67° C | 99% | 1061.5 hPa | 0 mm | - | 2 W/m² | - |
| 1777416849 | 21.67° C | 99% | 1060.6 hPa | 0 mm | - | 6 W/m² | - |
| 1777416545 | 21.67° C | 99% | 1060.6 hPa | 1.78 mm | - | 7 W/m² | - |
| 1777416241 | 21.67° C | 99% | 1061 hPa | 3.05 mm | - | 8 W/m² | - |
| 1777415941 | 21.67° C | 99% | 1061.5 hPa | 3.05 mm | - | 4 W/m² | - |
| 1777415636 | 21.67° C | 99% | 1061.3 hPa | 1.78 mm | - | 3 W/m² | - |
| 1777415332 | 21.67° C | 99% | 1060.9 hPa | 0 mm | - | 5 W/m² | - |
| 1777415027 | 21.67° C | 99% | 1061.2 hPa | 0 mm | - | 6 W/m² | - |
| 1777414726 | 21.67° C | 99% | 1061.4 hPa | 0 mm | - | 4 W/m² | - |
* Rain latest hour (hover to see other rain measurements)
** Current wind speed in m/s (hover to see current wind gust speed)